User: anonymous   Login
Location: Carnetin
(48.9010°N, 2.7059°E)
Time: 19:17:17
(UTC+00:00)
Language:

Cosmos 1825 - Orbit

View from above orbital plane
View from above orbital plane
View from above satellite
View from above satellite

Ground track
Ground track

The orbit data is extracted from the following two-line orbital elements,

1 17566U 87024A   23148.49252160  .00008830  00000-0  31538-3 0  9995
2 17566  82.5007 290.4642 0003475 173.3617 186.7669 15.28694208983843
Epoch (UTC): 28 May 2023 11:49:13
Eccentricity: 0.0003475
inclination: 82.5007°
perigee height: 477 km
apogee height: 482 km
right ascension of ascending node: 290.4642°
argument of perigee: 173.3617°
revolutions per day: 15.28694208
mean anomaly at epoch: 186.7669°
orbit number at epoch: 98384

The dashed part of the orbit path shows where the satellite is in the earth's shadow,  

DLR